Change the Weather History Date:

Monday, March 31, 2014

  Actual Average Record
Temperature  
Mean Temperature 52 °F 44 °F  
Max Temperature 67 °F 55 °F 78 °F (2010)
Min Temperature 37 °F 33 °F 19 °F (2011)
Degree Days  
Heating Degree Days 13 21  
Month to date heating degree days 1090 835  
Since 1 July heating degree days 6866 5591  
Cooling Degree Days 0 0  
Month to date cooling degree days 0 0  
Year to date cooling degree days 0 0  
Growing Degree Days 2 (Base 50)    
Moisture  
Dew Point 34 °F    
Average Humidity 50    
Maximum Humidity 73    
Minimum Humidity 29    
Precipitation  
Precipitation T in 0.09 in 1.05 in (1998)
Month to date precipitation 0.45 2.36  
Year to date precipitation 1.67 5.09  
Sea Level Pressure  
Sea Level Pressure 29.89 in    
Wind  
Wind Speed 18 mph (SSE)    
Max Wind Speed 31 mph    
Max Gust Speed 49 mph    
Visibility 10 miles    
Events Rain    
T = Trace of Precipitation, MM = Missing Value Source: NWS Daily Summary

Daily Weather History Graph

Daily Weather History Graph

Search for Another Location

Airport or City:

Trip Planner

Search our weather history database for the weather conditions in past years. The results will help you decide how hot, cold, wet, or windy it might be!

Date:

Astronomy

Mar. 31, 2014 Rise Set
Actual Time 6:37 AM CDT 7:17 PM CDT
Civil Twilight 6:09 AM CDT 7:45 PM CDT
Nautical Twilight 5:36 AM CDT 8:18 PM CDT
Astronomical Twilight 5:01 AM CDT 8:53 PM CDT
Moon 6:59 AM CDT (3/31) 8:37 PM CDT (3/31)
Length of Visible Light 13h 36m
Length of Day
12h 40m
New Moon, 1% of the Moon is Illuminated
Mar 31
New Moon
Apr 7
First Quarter
Apr 15
Full
Apr 22
Last Quarter
Apr 29
New

Hourly Weather History & Observations

Time (CDT) Temp. Windchill Dew Point Humidity Pressure Visibility Wind Dir Wind Speed Gust Speed Precip Events Conditions
12:52 AM 43.0 °F 37.2 °F 32.0 °F 65% 30.04 in 10.0 mi SSE 10.4 mph - N/A   Clear
1:52 AM 39.9 °F 33.9 °F 30.9 °F 70% 30.04 in 10.0 mi SSE 9.2 mph - N/A   Clear
2:52 AM 41.0 °F 36.4 °F 32.0 °F 70% 30.03 in 10.0 mi South 6.9 mph - N/A   Clear
3:52 AM 42.1 °F 35.7 °F 33.1 °F 70% 30.02 in 10.0 mi South 11.5 mph - N/A   Scattered Clouds
4:52 AM 43.0 °F 36.8 °F 33.1 °F 68% 30.03 in 10.0 mi South 11.5 mph - N/A   Partly Cloudy
5:52 AM 39.9 °F 33.4 °F 32.0 °F 73% 30.02 in 10.0 mi South 10.4 mph - N/A   Clear
6:52 AM 43.0 °F 37.2 °F 33.1 °F 68% 30.01 in 10.0 mi South 10.4 mph - N/A   Clear
7:52 AM 43.0 °F 36.8 °F 33.1 °F 68% 30.01 in 10.0 mi SSE 11.5 mph - N/A   Clear
8:52 AM 48.9 °F - 35.1 °F 59% 30.00 in 10.0 mi SSE 12.7 mph - N/A   Clear
9:52 AM 53.1 °F - 35.1 °F 50% 29.99 in 10.0 mi South 15.0 mph - N/A   Clear
10:52 AM 57.9 °F - 35.1 °F 42% 29.99 in 10.0 mi South 16.1 mph 28.8 mph N/A   Clear
11:52 AM 61.0 °F - 36.0 °F 39% 29.96 in 10.0 mi South 24.2 mph 32.2 mph N/A   Clear
12:52 PM 64.0 °F - 35.1 °F 34% 29.92 in 10.0 mi South 26.5 mph 35.7 mph N/A   Clear
1:52 PM 66.0 °F - 34.0 °F 30% 29.88 in 10.0 mi South 24.2 mph 32.2 mph N/A   Clear
2:52 PM 64.9 °F - 32.0 °F 29% 29.84 in 10.0 mi SSE 24.2 mph 38.0 mph N/A   Clear
3:52 PM 64.0 °F - 33.1 °F 31% 29.79 in 10.0 mi SSE 24.2 mph 36.8 mph N/A   Scattered Clouds
4:52 PM 63.0 °F - 30.9 °F 30% 29.77 in 10.0 mi SSE 24.2 mph 36.8 mph N/A   Clear
5:52 PM 64.0 °F - 32.0 °F 30% 29.75 in 10.0 mi SSE 21.9 mph 27.6 mph N/A   Overcast
6:52 PM 62.1 °F - 30.9 °F 31% 29.74 in 10.0 mi South 21.9 mph 29.9 mph N/A   Scattered Clouds
7:52 PM 60.1 °F - 32.0 °F 35% 29.73 in 10.0 mi SSE 20.7 mph 27.6 mph 0.00 in Rain Light Rain
8:52 PM 55.9 °F - 37.9 °F 51% 29.74 in 10.0 mi SSE 17.3 mph 29.9 mph 0.00 in   Overcast
9:52 PM 57.0 °F - 37.0 °F 47% 29.72 in 10.0 mi SSE 20.7 mph 26.5 mph N/A   Overcast
10:52 PM 57.0 °F - 37.9 °F 49% 29.72 in 10.0 mi South 21.9 mph - N/A   Partly Cloudy
11:52 PM 55.9 °F - 39.0 °F 53% 29.71 in 10.0 mi South 17.3 mph - N/A   Mostly Cloudy